Location: Nickerson Gardens
(33.9320°N, 118.2484°W)
Time: 09:37:23
(UTC+00:00)

Cosmos 2228 - Pass Details

Date: 29 October 2020
Orbit: 590 x 617 km, 82.5° (Epoch: 26 November)

Event Time Altitude Azimuth Distance (km) Brightness Sun altitude
Rises 12:58:23 0° 343° (NNW) 2,881 6.3 -15.5°
Reaches altitude 10° 13:00:44 10° 335° (NNW) 1,975 5.3 -15.0°
Maximum altitude 13:04:43 36° 269° (W) 986 3.6 -14.1°
Drops below altitude 10° 13:08:43 10° 203° (SSW) 1,971 5.5 -13.3°
Sets 13:11:03 0° 194° (SSW) 2,873 6.4 -12.8°
